When you browse on this site, cookies collect data to enhance your experience and personalize the content and advertising you see.
Visit our Privacy Policy to learn more. By continuing to use the site, you agree to this use of cookies and data.
  • En España
  • Lista de países
  • Para 7 días
  • Temperatura del agua
  • El tiempo en el mapa
  • Informadores
  • user-avatar
    Iniciar sesión

    Tiempo cada hora Chervonyi Zhovten'

    Hoy, 14 Octubre, Lunes

    Tiempo Temperatura Precipitaciones Viento Presión Humedad
    00:00 +13°C° 0 mm 3 mps 764 mmHg 78%
    01:00 +13°C° 0 mm 3 mps 764 mmHg 80%
    02:00 +12°C° 0 mm 3 mps 764 mmHg 85%
    03:00 +13°C° 0 mm 2 mps 764 mmHg 86%
    04:00 +13°C° 0 mm 2 mps 764 mmHg 88%
    05:00 +12°C° 0 mm 2 mps 764 mmHg 89%
    06:00 +13°C° 0 mm 2 mps 764 mmHg 86%
    07:00 +14°C° 0 mm 2 mps 765 mmHg 82%
    08:00 +15°C° 0 mm 2 mps 765 mmHg 78%
    09:00 +17°C° 0 mm 2 mps 765 mmHg 70%
    10:00 +18°C° 0 mm 2 mps 765 mmHg 62%
    11:00 +20°C° 0 mm 3 mps 765 mmHg 53%
    12:00 +21°C° 0 mm 2 mps 764 mmHg 49%
    13:00 +21°C° 0 mm 2 mps 764 mmHg 45%
    14:00 +23°C° 0 mm 2 mps 764 mmHg 40%
    15:00 +21°C° 0 mm 2 mps 764 mmHg 44%
    16:00 +19°C° 0 mm 2 mps 763 mmHg 49%
    17:00 +19°C° 0 mm 1 mps 763 mmHg 53%
    18:00 +18°C° 0 mm 1 mps 763 mmHg 54%
    19:00 +18°C° 0 mm 1 mps 763 mmHg 54%
    20:00 +16°C° 0 mm 1 mps 763 mmHg 55%
    21:00 +16°C° 0 mm 1 mps 763 mmHg 56%
    22:00 +15°C° 0 mm 1 mps 763 mmHg 56%
    23:00 +15°C° 0 mm 2 mps 763 mmHg 57%

    Mañana, 15 Octubre, Martes

    Tiempo Temperatura Precipitaciones Viento Presión Humedad
    00:00 +14°C° 0 mm 2 mps 763 mmHg 59%
    01:00 +14°C° 0 mm 1 mps 763 mmHg 61%
    02:00 +14°C° 0 mm 1 mps 763 mmHg 63%
    03:00 +14°C° 0 mm 1 mps 762 mmHg 65%
    04:00 +13°C° 0 mm 1 mps 762 mmHg 66%
    05:00 +13°C° 0 mm 1 mps 762 mmHg 68%
    06:00 +14°C° 0 mm 1 mps 762 mmHg 65%
    07:00 +15°C° 0 mm 1 mps 763 mmHg 62%
    08:00 +16°C° 0 mm 1 mps 763 mmHg 58%
    09:00 +19°C° 0 mm 1 mps 763 mmHg 52%
    10:00 +20°C° 0 mm 1 mps 762 mmHg 47%
    11:00 +22°C° 0 mm 1 mps 762 mmHg 41%
    12:00 +22°C° 0 mm 1 mps 762 mmHg 38%
    13:00 +23°C° 0 mm 1 mps 762 mmHg 35%
    14:00 +23°C° 0 mm 1 mps 762 mmHg 33%
    15:00 +22°C° 0 mm 1 mps 761 mmHg 36%
    16:00 +20°C° 0 mm 1 mps 761 mmHg 40%
    17:00 +19°C° 0 mm 1 mps 761 mmHg 43%
    18:00 +18°C° 0 mm 1 mps 761 mmHg 44%
    19:00 +18°C° 0 mm 1 mps 761 mmHg 45%
    20:00 +15°C° 0 mm 0 mps 762 mmHg 46%
    21:00 +16°C° 0 mm 1 mps 762 mmHg 48%
    22:00 +16°C° 0 mm 1 mps 762 mmHg 49%
    23:00 +15°C° 0 mm 1 mps 761 mmHg 51%

    Pasado mañana, 16 Octubre, Miércoles

    Tiempo Temperatura Precipitaciones Viento Presión Humedad
    00:00 +15°C° 0 mm 1 mps 762 mmHg 54%
    01:00 +15°C° 0 mm 2 mps 762 mmHg 57%
    02:00 +15°C° 0 mm 2 mps 762 mmHg 60%
    03:00 +14°C° 0 mm 2 mps 762 mmHg 64%
    04:00 +14°C° 0 mm 2 mps 762 mmHg 67%
    05:00 +14°C° 0 mm 2 mps 762 mmHg 71%
    06:00 +15°C° 0 mm 2 mps 762 mmHg 69%
    07:00 +16°C° 0 mm 2 mps 762 mmHg 66%
    08:00 +16°C° 0 mm 2 mps 762 mmHg 64%
    09:00 +18°C° 0 mm 2 mps 762 mmHg 57%
    10:00 +20°C° 0 mm 3 mps 762 mmHg 50%
    11:00 +22°C° 0 mm 3 mps 762 mmHg 43%
    12:00 +24°C° 0 mm 3 mps 762 mmHg 40%
    13:00 +25°C° 0 mm 3 mps 762 mmHg 37%
    14:00 +26°C° 0 mm 3 mps 761 mmHg 34%
    15:00 +24°C° 0 mm 3 mps 761 mmHg 38%
    16:00 +23°C° 0 mm 2 mps 761 mmHg 42%
    17:00 +20°C° 0 mm 2 mps 761 mmHg 46%
    18:00 +19°C° 0 mm 2 mps 761 mmHg 49%
    19:00 +18°C° 0 mm 3 mps 761 mmHg 52%
    20:00 +17°C° 0 mm 3 mps 762 mmHg 55%
    21:00 +17°C° 0 mm 3 mps 761 mmHg 59%
    22:00 +16°C° 0 mm 3 mps 761 mmHg 63%
    23:00 +16°C° 0 mm 3 mps 761 mmHg 67%

    17 Octubre, Jueves

    Tiempo Temperatura Precipitaciones Viento Presión Humedad
    00:00 +14°C° 0 mm 3 mps 761 mmHg 71%
    01:00 +15°C° 0 mm 2 mps 761 mmHg 75%
    02:00 +14°C° 0 mm 2 mps 762 mmHg 79%
    03:00 +14°C° 0 mm 2 mps 762 mmHg 80%
    04:00 +14°C° 0 mm 2 mps 762 mmHg 81%
    05:00 +13°C° 0 mm 2 mps 762 mmHg 83%
    06:00 +14°C° 0 mm 2 mps 762 mmHg 78%
    07:00 +14°C° 0 mm 3 mps 762 mmHg 74%
    08:00 +16°C° 0 mm 3 mps 762 mmHg 70%
    09:00 +18°C° 0 mm 2 mps 762 mmHg 61%
    10:00 +20°C° 0 mm 2 mps 762 mmHg 52%
    11:00 +23°C° 0 mm 2 mps 762 mmHg 43%
    12:00 +24°C° 0 mm 2 mps 761 mmHg 40%
    13:00 +25°C° 0 mm 2 mps 761 mmHg 37%
    14:00 +25°C° 0 mm 1 mps 760 mmHg 34%
    15:00 +24°C° 0 mm 1 mps 760 mmHg 37%
    16:00 +23°C° 0 mm 1 mps 760 mmHg 41%
    17:00 +21°C° 0 mm 1 mps 760 mmHg 44%
    18:00 +20°C° 0 mm 1 mps 760 mmHg 47%
    19:00 +20°C° 0 mm 1 mps 760 mmHg 50%
    20:00 +19°C° 0 mm 1 mps 760 mmHg 52%
    21:00 +18°C° 0 mm 1 mps 760 mmHg 55%
    22:00 +18°C° 0 mm 1 mps 760 mmHg 57%
    23:00 +16°C° 0 mm 1 mps 760 mmHg 59%

    18 Octubre, Viernes

    Tiempo Temperatura Precipitaciones Viento Presión Humedad
    00:00 +16°C° 0 mm 1 mps 760 mmHg 61%
    01:00 +15°C° 0 mm 1 mps 760 mmHg 62%
    02:00 +14°C° 0 mm 0 mps 760 mmHg 63%
    03:00 +15°C° 0 mm 1 mps 760 mmHg 64%
    04:00 +15°C° 0 mm 1 mps 760 mmHg 64%
    05:00 +14°C° 0 mm 2 mps 760 mmHg 65%
    06:00 +15°C° 0 mm 2 mps 760 mmHg 62%
    07:00 +16°C° 0 mm 2 mps 760 mmHg 60%
    08:00 +17°C° 0 mm 2 mps 761 mmHg 57%
    09:00 +19°C° 0 mm 2 mps 761 mmHg 51%
    10:00 +20°C° 0 mm 2 mps 761 mmHg 45%
    11:00 +23°C° 0 mm 2 mps 761 mmHg 39%
    12:00 +24°C° 0 mm 3 mps 761 mmHg 37%
    13:00 +24°C° 0 mm 3 mps 761 mmHg 34%
    14:00 +24°C° 0 mm 3 mps 760 mmHg 32%
    15:00 +22°C° 0 mm 3 mps 760 mmHg 36%
    16:00 +21°C° 0 mm 3 mps 760 mmHg 39%
    17:00 +19°C° 0 mm 3 mps 761 mmHg 43%
    18:00 +18°C° 0 mm 3 mps 761 mmHg 47%
    19:00 +18°C° 0 mm 3 mps 761 mmHg 50%
    20:00 +17°C° 0 mm 3 mps 761 mmHg 53%
    21:00 +16°C° 0 mm 3 mps 761 mmHg 58%
    22:00 +16°C° 0 mm 3 mps 762 mmHg 63%
    23:00 +14°C° 0 mm 3 mps 762 mmHg 68%

    19 Octubre, Sábado

    Tiempo Temperatura Precipitaciones Viento Presión Humedad
    00:00 +14°C° 0 mm 3 mps 762 mmHg 71%
    01:00 +14°C° 0 mm 3 mps 762 mmHg 74%
    02:00 +13°C° 0 mm 3 mps 762 mmHg 77%
    03:00 +13°C° 0 mm 3 mps 762 mmHg 78%
    04:00 +13°C° 0 mm 3 mps 762 mmHg 80%
    05:00 +12°C° 0 mm 3 mps 763 mmHg 82%
    06:00 +13°C° 0 mm 3 mps 763 mmHg 79%
    07:00 +14°C° 0 mm 3 mps 763 mmHg 75%
    08:00 +16°C° 0 mm 3 mps 763 mmHg 72%
    09:00 +17°C° 0 mm 3 mps 763 mmHg 66%
    10:00 +19°C° 0 mm 3 mps 763 mmHg 59%
    11:00 +21°C° 0 mm 4 mps 763 mmHg 52%
    12:00 +21°C° 0 mm 4 mps 763 mmHg 49%
    13:00 +22°C° 0 mm 3 mps 763 mmHg 47%
    14:00 +22°C° 0 mm 3 mps 763 mmHg 44%
    15:00 +21°C° 0 mm 3 mps 763 mmHg 49%
    16:00 +19°C° 0 mm 3 mps 763 mmHg 53%
    17:00 +18°C° 0 mm 3 mps 763 mmHg 58%
    18:00 +17°C° 0 mm 3 mps 763 mmHg 61%
    19:00 +15°C° 0 mm 4 mps 763 mmHg 64%
    20:00 +15°C° 0 mm 4 mps 764 mmHg 68%
    21:00 +14°C° 0 mm 4 mps 764 mmHg 70%
    22:00 +13°C° 0 mm 4 mps 764 mmHg 73%
    23:00 +13°C° 0 mm 3 mps 764 mmHg 76%
    Mostrar más